14.05.2024;22:00;92
14.05.2024;21:00;100
14.05.2024;20:00;109
14.05.2024;19:00;113
14.05.2024;18:00;115
14.05.2024;17:00;114
14.05.2024;16:00;112
14.05.2024;15:00;110
14.05.2024;14:00;106
14.05.2024;13:00;98
14.05.2024;12:00;88
14.05.2024;11:00;74
14.05.2024;10:00;59
14.05.2024;09:00;43
14.05.2024;08:00;31
14.05.2024;07:00;8
14.05.2024;06:00;8
14.05.2024;05:00;12
14.05.2024;04:00;9
14.05.2024;03:00;15
14.05.2024;02:00;24
14.05.2024;01:00;26
14.05.2024;00:00;23
13.05.2024;23:00;32
13.05.2024;22:00;79
13.05.2024;21:00;18
13.05.2024;20:00;78
13.05.2024;19:00;80
13.05.2024;18:00;68
13.05.2024;17:00;80
13.05.2024;16:00;101
13.05.2024;15:00;112
13.05.2024;14:00;105
13.05.2024;13:00;102
13.05.2024;12:00;98
13.05.2024;11:00;87
13.05.2024;10:00;67
13.05.2024;09:00;58
13.05.2024;08:00;47
13.05.2024;07:00;31
13.05.2024;06:00;28
13.05.2024;05:00;24
13.05.2024;04:00;36
13.05.2024;03:00;48
13.05.2024;02:00;66
13.05.2024;01:00;77
13.05.2024;00:00;78
12.05.2024;23:00;65
